Findlay, OH

2:54 AM EST on December 16, 2019 (GMT -0500)
Findlay

Weather History for KFDY - October, 2019

Change the Weather History Date:

Thursday, October 10, 2019

  Actual Average Record
Temperature  
Mean Temperature 66 °F -  
Max Temperature 80 °F 62 °F 88 °F (2010)
Min Temperature 52 °F 42 °F 28 °F (1964)
Cooling Degree Days 1    
Growing Degree Days 16 (Base 50)    
Moisture  
Dew Point 52 °F    
Average Humidity 65    
Maximum Humidity 83    
Minimum Humidity 39    
Precipitation  
Precipitation 0.00 in - - ()
Sea Level Pressure  
Sea Level Pressure 30.12 in    
Wind  
Wind Speed 5 mph (ESE)    
Max Wind Speed 9 mph    
Max Gust Speed 16 mph    
Visibility 10 miles    
Events      
Averages and records for this station are not official NWS values.
T = Trace of Precipitation, MM = Missing Value Source: NWS Daily Summary

Daily Weather History Graph

Daily Weather History Graph

Search for Another Location

Airport or City:

Astronomy

Oct. 10, 2019 Rise Set
Actual Time 7:40 AM EDT 7:02 PM EDT
Civil Twilight 7:12 AM EDT 7:29 PM EDT
Nautical Twilight 6:41 AM EDT 8:01 PM EDT
Astronomical Twilight 6:09 AM EDT 8:33 PM EDT
Moon 6:05 PM EDT (10/10) 4:20 AM EDT (10/10)
Length of Visible Light 12h 16m
Length of Day
11h 21m
Waxing Gibbous, 91% of the Moon is Illuminated
Oct 10
Waxing Gibbous
Oct 13
Full
Oct 21
Last Quarter
Oct 27
New
Nov 4
First Quarter

Hourly Weather History & Observations

Time (EDT) Temp. Heat Index Dew Point Humidity Pressure Visibility Wind Dir Wind Speed Gust Speed Precip Events Conditions
12:53 AM 55.0 °F - 50.0 °F 83% 30.15 in 10.0 mi East 6.9 mph - N/A   Clear
1:53 AM 54.0 °F - 48.9 °F 83% 30.14 in 10.0 mi East 4.6 mph - N/A   Clear
2:53 AM 53.1 °F - 46.9 °F 80% 30.14 in 10.0 mi East 4.6 mph - N/A   Clear
3:53 AM 52.0 °F - 46.9 °F 83% 30.14 in 10.0 mi Calm Calm - N/A   Clear
4:53 AM 53.1 °F - 46.9 °F 80% 30.16 in 10.0 mi Calm Calm - N/A   Clear
5:53 AM 53.1 °F - 46.9 °F 80% 30.16 in 10.0 mi East 3.5 mph - N/A   Clear
6:53 AM 53.1 °F - 46.9 °F 80% 30.17 in 10.0 mi Calm Calm - N/A   Clear
7:53 AM 53.1 °F - 46.0 °F 77% 30.17 in 10.0 mi SE 5.8 mph - N/A   Clear
8:53 AM 55.0 °F - 48.0 °F 77% 30.17 in 10.0 mi SE 5.8 mph - N/A   Mostly Cloudy
9:53 AM 61.0 °F - 50.0 °F 67% 30.18 in 10.0 mi SE 8.1 mph - N/A   Scattered Clouds
10:53 AM 68.0 °F - 54.0 °F 61% 30.18 in 10.0 mi SE 5.8 mph - N/A   Scattered Clouds
11:53 AM 73.0 °F - 54.0 °F 51% 30.17 in 10.0 mi ESE 4.6 mph - N/A   Mostly Cloudy
12:53 PM 75.9 °F - 55.9 °F 50% 30.15 in 10.0 mi SE 8.1 mph 16.1 mph N/A   Partly Cloudy
1:53 PM 78.1 °F - 55.0 °F 45% 30.13 in 10.0 mi SSE 6.9 mph - N/A   Clear
2:53 PM 80.1 °F 80.0 °F 54.0 °F 40% 30.10 in 10.0 mi South 5.8 mph - N/A   Clear
3:53 PM 80.1 °F 79.9 °F 53.1 °F 39% 30.09 in 10.0 mi South 6.9 mph - N/A   Clear
4:53 PM 79.0 °F - 53.1 °F 40% 30.07 in 10.0 mi SSE 8.1 mph - N/A   Clear
5:53 PM 75.9 °F - 54.0 °F 46% 30.06 in 10.0 mi ESE 4.6 mph - N/A   Clear
6:53 PM 73.9 °F - 54.0 °F 50% 30.06 in 10.0 mi ESE 4.6 mph - N/A   Clear
7:53 PM 70.0 °F - 54.0 °F 57% 30.06 in 10.0 mi ENE 8.1 mph - N/A   Clear
8:53 PM 66.9 °F - 57.0 °F 70% 30.06 in 10.0 mi East 8.1 mph - N/A   Clear
9:53 PM 64.9 °F - 57.0 °F 75% 30.06 in 10.0 mi East 9.2 mph - N/A   Clear
10:53 PM 64.9 °F - 55.0 °F 70% 30.07 in 10.0 mi ESE 6.9 mph - N/A   Clear
11:53 PM 64.9 °F - 54.0 °F 68% 30.06 in 10.0 mi ESE 9.2 mph - N/A   Clear